Elefsis, Greece

12:08 PM EEST on August 20, 2017 (GMT +0300)
Elefsis Air Base

Weather History for LGEL - January, 2013

Change the Weather History Date:

Thursday, January 31, 2013

  Actual Average Record
Temperature  
Mean Temperature 50 °F -  
Max Temperature 62 °F 55 °F 65 °F (2015)
Min Temperature 39 °F 39 °F 32 °F (1997)
Degree Days  
Heating Degree Days 14    
Moisture  
Dew Point 38 °F    
Average Humidity 60    
Maximum Humidity 81    
Minimum Humidity 44    
Precipitation  
Precipitation 0.00 in - - ()
Sea Level Pressure  
Sea Level Pressure 29.93 in    
Wind  
Wind Speed 3 mph ()    
Max Wind Speed 18 mph    
Max Gust Speed 33 mph    
Visibility 6.2 miles    
Events      
Averages and records for this station are not official NWS values.
T = Trace of Precipitation, MM = Missing Value Source: Averaged Metar Reports

Daily Weather History Graph

Daily Weather History Graph

Search for Another Location

Airport or City:

Trip Planner

Search our weather history database for the weather conditions in past years. The results will help you decide how hot, cold, wet, or windy it might be!

Date:

Astronomy

Jan. 31, 2013 Rise Set
Actual Time 7:31 AM EET 5:47 PM EET
Civil Twilight 7:03 AM EET 6:15 PM EET
Nautical Twilight 6:31 AM EET 6:47 PM EET
Astronomical Twilight 6:00 AM EET 7:18 PM EET
Moon 10:24 PM EET (1/31) 9:25 AM EET (1/31)
Length of Visible Light 11h 12m
Length of Day
10h 16m
Waning Gibbous, 82% of the Moon is Illuminated
Jan 31
Waning Gibbous
Feb 3
Last Quarter
Feb 10
New
Feb 17
First Quarter
Feb 25
Full

Hourly Weather History & Observations

Time (EET) Temp. Windchill Dew Point Humidity Pressure Visibility Wind Dir Wind Speed Gust Speed Precip Events Conditions
12:50 AM 46.4 °F - 33.8 °F 62% 30.01 in 6.2 mi Calm Calm - N/A   Mostly Cloudy
1:50 AM 48.2 °F - 35.6 °F 62% 30.01 in 6.2 mi North 4.6 mph - N/A   Mostly Cloudy
2:50 AM 48.2 °F - 33.8 °F 58% 30.01 in 6.2 mi Calm Calm - N/A   Mostly Cloudy
3:50 AM 44.6 °F - 33.8 °F 66% 29.98 in 6.2 mi Calm Calm - N/A   Mostly Cloudy
4:50 AM 42.8 °F - 33.8 °F 70% 29.98 in 6.2 mi Calm Calm - N/A   Scattered Clouds
5:20 AM 44.6 °F - 33.8 °F 66% 29.98 in 6.2 mi Calm Calm - N/A   Partly Cloudy
5:50 AM 39.2 °F - 33.8 °F 81% 29.95 in 6.2 mi Calm Calm - N/A   Partly Cloudy
6:20 AM 41.0 °F - 33.8 °F 76% 29.95 in 6.2 mi Calm Calm - N/A   Partly Cloudy
6:50 AM 41.0 °F - 33.8 °F 76% 29.95 in - Calm Calm - N/A   Clear
7:20 AM 41.0 °F 39.0 °F 33.8 °F 76% 29.95 in - Variable 3.5 mph - N/A   Clear
7:50 AM 41.0 °F 38.0 °F 33.8 °F 76% 29.95 in - North 4.6 mph - N/A   Clear
8:20 AM 42.8 °F 41.1 °F 33.8 °F 70% 29.95 in - Variable 3.5 mph - N/A   Clear
8:50 AM 46.4 °F - 35.6 °F 66% 29.95 in - Variable 2.3 mph - N/A   Clear
9:20 AM 50.0 °F - 35.6 °F 58% 29.95 in - Calm Calm - N/A   Clear
9:50 AM 51.8 °F - 35.6 °F 54% 29.95 in - Calm Calm - N/A   Clear
10:20 AM 55.4 °F - 33.8 °F 44% 29.92 in - Calm Calm - N/A   Clear
10:50 AM 55.4 °F - 37.4 °F 51% 29.92 in - Calm Calm - N/A   Clear
11:20 AM 57.2 °F - 41.0 °F 55% 29.92 in - Variable 3.5 mph - N/A   Clear
11:50 AM 57.2 °F - 41.0 °F 55% 29.92 in - Variable 2.3 mph - N/A   Clear
12:20 PM 59.0 °F - 41.0 °F 51% 29.92 in - Calm Calm - N/A   Clear
12:50 PM 59.0 °F - 42.8 °F 55% 29.89 in - Variable 2.3 mph - N/A   Clear
1:20 PM 59.0 °F - 42.8 °F 55% 29.89 in - Variable 3.5 mph - N/A   Clear
1:50 PM 59.0 °F - 42.8 °F 55% 29.86 in - Variable 2.3 mph - N/A   Clear
2:20 PM 62.6 °F - 42.8 °F 48% 29.86 in - Calm Calm - N/A   Clear
2:50 PM 60.8 °F - 44.6 °F 55% 29.86 in 6.2 mi Variable 3.5 mph - N/A   Mostly Cloudy
3:20 PM 60.8 °F - 44.6 °F 55% 29.86 in 6.2 mi Calm Calm - N/A   Mostly Cloudy
3:50 PM 59.0 °F - 44.6 °F 59% 29.83 in 6.2 mi ESE 4.6 mph - N/A   Mostly Cloudy
4:20 PM 59.0 °F - 44.6 °F 59% 29.83 in 6.2 mi Variable 3.5 mph - N/A   Mostly Cloudy
4:50 PM 59.0 °F - 44.6 °F 59% 29.86 in 6.2 mi NNE 6.9 mph 25.3 mph N/A   Mostly Cloudy
5:20 PM 57.2 °F - 42.8 °F 59% 29.89 in 6.2 mi North 18.4 mph 29.9 mph N/A   Mostly Cloudy
5:50 PM 57.2 °F - 41.0 °F 55% 29.89 in 6.2 mi North 16.1 mph 27.6 mph N/A   Light Drizzle
6:20 PM 55.4 °F - 42.8 °F 63% 29.92 in 6.2 mi North 18.4 mph 31.1 mph N/A   Mostly Cloudy
6:50 PM 55.4 °F - 42.8 °F 63% 29.92 in 6.2 mi NNW 10.4 mph 21.9 mph N/A   Mostly Cloudy
7:20 PM 53.6 °F - 41.0 °F 62% 29.92 in 6.2 mi NNW 8.1 mph - N/A   Partly Cloudy
7:50 PM 53.6 °F - 41.0 °F 62% 29.95 in 6.2 mi NNW 8.1 mph - N/A   Partly Cloudy
8:20 PM 53.6 °F - 39.2 °F 58% 29.98 in 6.2 mi NNW 4.6 mph - N/A   Partly Cloudy
8:50 PM 51.8 °F - 39.2 °F 62% 29.98 in 6.2 mi NW 8.1 mph - N/A   Partly Cloudy
9:20 PM 51.8 °F - 41.0 °F 67% 29.98 in 6.2 mi NNW 6.9 mph - N/A   Partly Cloudy
9:50 PM 51.8 °F - 37.4 °F 58% 30.01 in 6.2 mi North 8.1 mph - N/A   Partly Cloudy
10:20 PM 51.8 °F - 35.6 °F 54% 30.01 in 6.2 mi NNW 10.4 mph - N/A   Partly Cloudy
11:50 PM 51.8 °F - 30.2 °F 44% 30.01 in 6.2 mi NNW 17.3 mph 33.4 mph N/A   Partly Cloudy